Houston Hull, TX

11:52 PM CDT on October 16, 2017 (GMT -0500)
Sugar Land Municipal-Hull

Weather History for KSGR - February, 2014

Change the Weather History Date:

Monday, February 17, 2014

  Actual Average Record
Temperature  
Mean Temperature 72 °F -  
Max Temperature 79 °F 65 °F 82 °F (1956)
Min Temperature 66 °F 44 °F 26 °F (1980)
Cooling Degree Days 8    
Growing Degree Days 22 (Base 50)    
Moisture  
Dew Point 63 °F    
Average Humidity 78    
Maximum Humidity 93    
Minimum Humidity 60    
Precipitation  
Precipitation 0.00 in - - ()
Sea Level Pressure  
Sea Level Pressure 30.05 in    
Wind  
Wind Speed 10 mph (SW)    
Max Wind Speed 15 mph    
Max Gust Speed 22 mph    
Visibility 10 miles    
Events      
Averages and records for this station are not official NWS values.
T = Trace of Precipitation, MM = Missing Value Source: NWS Daily Summary

Daily Weather History Graph

Daily Weather History Graph

Search for Another Location

Airport or City:

Trip Planner

Search our weather history database for the weather conditions in past years. The results will help you decide how hot, cold, wet, or windy it might be!

Date:

Astronomy

Feb. 17, 2014 Rise Set
Actual Time 7:00 AM CST 6:13 PM CST
Civil Twilight 6:35 AM CST 6:37 PM CST
Nautical Twilight 6:08 AM CST 7:05 PM CST
Astronomical Twilight 5:40 AM CST 7:33 PM CST
Moon 8:52 PM CST 8:15 AM CST
Length of Visible Light 12h 01m
Length of Day
11h 13m
Waning Gibbous, 93% of the Moon is Illuminated
Feb 17
Waning Gibbous
Feb 22
Last Quarter
Mar 1
New
Mar 8
First Quarter
Mar 16
Full

Hourly Weather History & Observations

Time (CST) Temp. Dew Point Humidity Pressure Visibility Wind Dir Wind Speed Gust Speed Precip Events Conditions
12:53 AM 66.0 °F 62.1 °F 87% 30.02 in 10.0 mi South 10.4 mph - N/A   Overcast
1:53 AM 66.0 °F 62.1 °F 87% 30.01 in 10.0 mi South 10.4 mph - N/A   Overcast
2:53 AM 66.9 °F 63.0 °F 87% 29.99 in 10.0 mi South 12.7 mph - N/A   Overcast
3:53 AM 66.0 °F 63.0 °F 90% 29.99 in 10.0 mi South 8.1 mph - N/A   Overcast
4:53 AM 66.9 °F 62.1 °F 84% 29.97 in 10.0 mi South 10.4 mph - N/A   Overcast
5:35 AM 66.9 °F 62.1 °F 84% 29.96 in 10.0 mi SSW 11.5 mph - N/A   Scattered Clouds
5:53 AM 66.9 °F 62.1 °F 84% 29.98 in 10.0 mi SSW 10.4 mph - N/A   Scattered Clouds
6:03 AM 66.9 °F 62.1 °F 84% 29.97 in 10.0 mi SSW 8.1 mph - N/A   Mostly Cloudy
6:53 AM 66.9 °F 62.1 °F 84% 29.99 in 10.0 mi SSW 8.1 mph - N/A   Overcast
7:53 AM 66.9 °F 63.0 °F 87% 30.04 in 9.0 mi West 5.8 mph - N/A   Overcast
8:53 AM 70.0 °F 64.0 °F 81% 30.06 in 9.0 mi SW 5.8 mph - N/A   Overcast
9:53 AM 72.0 °F 63.0 °F 73% 30.07 in 10.0 mi SW 12.7 mph - N/A   Overcast
10:27 AM 73.0 °F 63.0 °F 71% 30.07 in 10.0 mi WSW 12.7 mph - N/A   Overcast
10:53 AM 73.0 °F 64.0 °F 73% 30.06 in 10.0 mi SSW 15.0 mph 21.9 mph N/A   Overcast
11:53 AM 78.1 °F 64.0 °F 62% 30.10 in 10.0 mi West 9.2 mph - N/A   Mostly Cloudy
12:00 PM 75.9 °F 63.0 °F 64% 30.08 in 10.0 mi WSW 12.7 mph - N/A   Mostly Cloudy
12:53 PM 79.0 °F 64.9 °F 62% 30.05 in 10.0 mi SW 11.5 mph - N/A   Partly Cloudy
1:53 PM 78.1 °F 63.0 °F 60% 30.04 in 10.0 mi WNW 5.8 mph - N/A   Overcast
2:53 PM 75.9 °F 63.0 °F 64% 30.03 in 10.0 mi NNW 11.5 mph - N/A   Overcast
3:53 PM 77.0 °F 64.0 °F 64% 30.04 in 10.0 mi NNW 8.1 mph - N/A   Partly Cloudy
4:53 PM 77.0 °F 63.0 °F 62% 30.04 in 10.0 mi North 5.8 mph - N/A   Clear
5:53 PM 73.0 °F 63.0 °F 71% 30.05 in 10.0 mi North 5.8 mph - N/A   Partly Cloudy
6:53 PM 71.1 °F 62.1 °F 73% 30.06 in 10.0 mi North 4.6 mph - N/A   Mostly Cloudy
7:53 PM 71.1 °F 62.1 °F 73% 30.08 in 10.0 mi NE 4.6 mph - N/A   Overcast
8:53 PM 69.1 °F 62.1 °F 78% 30.09 in 10.0 mi SSW 8.1 mph - N/A   Mostly Cloudy
9:53 PM 70.0 °F 64.9 °F 84% 30.11 in 10.0 mi South 8.1 mph - N/A   Overcast
10:03 PM 70.0 °F 64.9 °F 84% 30.10 in 10.0 mi South 8.1 mph - N/A   Overcast
10:16 PM 69.1 °F 64.9 °F 87% 30.10 in 10.0 mi South 9.2 mph - N/A   Overcast
10:53 PM 66.9 °F 64.9 °F 93% 30.11 in 8.0 mi South 6.9 mph - N/A   Mostly Cloudy
11:27 PM 66.9 °F 64.9 °F 93% 30.11 in 3.0 mi South 9.2 mph - N/A   Overcast
11:53 PM 66.9 °F 64.9 °F 93% 30.11 in 4.0 mi South 8.1 mph - N/A   Overcast